| time (UTC) | temp C | wind direction | speed KPH | gust KPH | rain 1hr cm | rain 24hr cm | rain mn cm | humidity % | barometer mb |
| 20260506014017 | 18 | 276 | 8.0 | 14.5 | 0.00 | 0.00 | 0.00 | 37 | 1011.8 |
| 20260506013510 | 18 | 257 | 6.4 | 14.5 | 0.00 | 0.00 | 0.00 | 37 | 1011.9 |
| 20260506013031 | 18 | 273 | 6.4 | 14.5 | 0.00 | 0.00 | 0.00 | 38 | 1012.0 |
| 20260506012511 | 18 | 286 | 8.0 | 12.9 | 0.00 | 0.00 | 0.00 | 41 | 1012.0 |
| 20260506012012 | 19 | 311 | 4.8 | 11.3 | 0.00 | 0.00 | 0.00 | 40 | 1011.9 |
| 20260506011535 | 19 | 254 | 4.8 | 12.9 | 0.00 | 0.00 | 0.00 | 39 | 1011.9 |
| 20260506011015 | 19 | 254 | 4.8 | 8.0 | 0.00 | 0.00 | 0.00 | 40 | 1011.8 |
| 20260506010512 | 19 | 273 | 4.8 | 8.0 | 0.00 | 0.00 | 0.00 | 37 | 1012.0 |
| 20260506010035 | 19 | 278 | 3.2 | 6.4 | 0.00 | 0.00 | 0.00 | 39 | 1011.9 |
| 20260506005511 | 19 | 287 | 4.8 | 6.4 | 0.00 | 0.00 | 0.00 | 40 | 1011.9 |
| 20260506005012 | 19 | 315 | 3.2 | 8.0 | 0.00 | 0.00 | 0.00 | 38 | 1011.9 |
| 20260506004530 | 19 | 262 | 3.2 | 11.3 | 0.00 | 0.00 | 0.00 | 38 | 1011.9 |
| 20260506004012 | 19 | 290 | 4.8 | 11.3 | 0.00 | 0.00 | 0.00 | 38 | 1012.1 |
| 20260506003514 | 19 | 252 | 4.8 | 11.3 | 0.00 | 0.00 | 0.00 | 41 | 1012.1 |
| 20260506003032 | 18 | 57 | 0.0 | 6.4 | 0.00 | 0.00 | 0.00 | 40 | 1011.9 |
| 20260506002514 | 18 | 61 | 3.2 | 8.0 | 0.00 | 0.00 | 0.00 | 41 | 1011.9 |
| 20260506002012 | 18 | 63 | 3.2 | 11.3 | 0.00 | 0.00 | 0.00 | 40 | 1012.0 |
| 20260506001536 | 18 | 58 | 4.8 | 11.3 | 0.00 | 0.00 | 0.00 | 41 | 1012.0 |
| 20260506001014 | 18 | 301 | 0.0 | 4.8 | 0.00 | 0.00 | 0.00 | 40 | 1012.1 |
| 20260506000511 | 18 | 289 | 1.6 | 3.2 | 0.00 | 0.00 | 0.00 | 40 | 1012.1 |
| 20260506000040 | 18 | 323 | 1.6 | 4.8 | 0.00 | 0.00 | 0.00 | 39 | 1012.2 |
| 20260505235511 | 18 | 323 | 1.6 | 8.0 | 0.00 | 0.00 | 0.00 | 39 | 1012.1 |
| 20260505235011 | 19 | 355 | 3.2 | 8.0 | 0.00 | 0.00 | 0.00 | 40 | 1012.1 |
| 20260505234535 | 19 | 296 | 3.2 | 9.7 | 0.00 | 0.00 | 0.00 | 39 | 1012.0 |
| 20260505234015 | 20 | 42 | 3.2 | 12.9 | 0.00 | 0.00 | 0.00 | 39 | 1012.1 |
| 20260505233514 | 19 | 119 | 4.8 | 12.9 | 0.00 | 0.00 | 0.00 | 39 | 1012.0 |
| 20260505233030 | 19 | 56 | 4.8 | 16.1 | 0.00 | 0.00 | 0.00 | 39 | 1012.0 |
| 20260505232517 | 19 | 46 | 6.4 | 16.1 | 0.00 | 0.00 | 0.00 | 38 | 1012.2 |
| 20260505232015 | 18 | 100 | 4.8 | 16.1 | 0.00 | 0.00 | 0.00 | 40 | 1012.2 |
| 20260505231534 | 18 | 112 | 9.7 | 14.5 | 0.00 | 0.00 | 0.00 | 41 | 1012.1 |
| 20260505231012 | 18 | 88 | 6.4 | 12.9 | 0.00 | 0.00 | 0.00 | 40 | 1012.2 |
| 20260505230513 | 17 | 86 | 3.2 | 6.4 | 0.00 | 0.00 | 0.00 | 40 | 1012.2 |
| 20260505230036 | 17 | 24 | 1.6 | 6.4 | 0.00 | 0.00 | 0.00 | 40 | 1012.3 |
| 20260505225512 | 17 | 31 | 3.2 | 6.4 | 0.00 | 0.00 | 0.00 | 39 | 1012.4 |
| 20260505225015 | 18 | 355 | 1.6 | 8.0 | 0.00 | 0.00 | 0.00 | 39 | 1012.4 |
| 20260505224535 | 18 | 340 | 1.6 | 9.7 | 0.00 | 0.00 | 0.00 | 38 | 1012.6 |
| 20260505224013 | 18 | 355 | 4.8 | 9.7 | 0.00 | 0.00 | 0.00 | 37 | 1012.3 |
| 20260505223515 | 19 | 62 | 4.8 | 9.7 | 0.00 | 0.00 | 0.00 | 37 | 1012.4 |
| 20260505223035 | 19 | 341 | 4.8 | 12.9 | 0.00 | 0.00 | 0.00 | 37 | 1012.4 |
| 20260505222512 | 18 | 22 | 4.8 | 12.9 | 0.00 | 0.00 | 0.00 | 37 | 1012.5 |
| 20260505222014 | 18 | 27 | 1.6 | 8.0 | 0.00 | 0.00 | 0.00 | 38 | 1012.4 |
| 20260505221530 | 18 | 24 | 4.8 | 9.7 | 0.00 | 0.00 | 0.00 | 37 | 1012.5 |
| 20260505221010 | 18 | 36 | 3.2 | 9.7 | 0.00 | 0.00 | 0.00 | 37 | 1012.5 |
| 20260505220513 | 19 | 13 | 4.8 | 8.0 | 0.00 | 0.00 | 0.00 | 36 | 1012.5 |
| 20260505220038 | 20 | 80 | 4.8 | 9.7 | 0.00 | 0.00 | 0.00 | 35 | 1012.5 |
| 20260505215512 | 19 | 15 | 4.8 | 14.5 | 0.00 | 0.00 | 0.00 | 36 | 1012.5 |
| 20260505215010 | 20 | 360 | 8.0 | 16.1 | 0.00 | 0.00 | 0.00 | 34 | 1012.7 |
| 20260505214549 | 20 | 5 | 8.0 | 16.1 | 0.00 | 0.00 | 0.00 | 36 | 1012.6 |
| 20260505214015 | 20 | 11 | 4.8 | 14.5 | 0.00 | 0.00 | 0.00 | 36 | 1012.5 |
| 20260505213515 | 19 | 38 | 4.8 | 9.7 | 0.00 | 0.00 | 0.00 | 37 | 1012.8 |
| 20260505213033 | 19 | 334 | 4.8 | 9.7 | 0.00 | 0.00 | 0.00 | 37 | 1013.0 |
| 20260505212514 | 18 | 347 | 4.8 | 9.7 | 0.00 | 0.00 | 0.00 | 39 | 1012.7 |
| 20260505212013 | 18 | 319 | 4.8 | 9.7 | 0.00 | 0.00 | 0.00 | 39 | 1012.7 |
| 20260505211534 | 18 | 34 | 3.2 | 8.0 | 0.00 | 0.00 | 0.00 | 41 | 1012.7 |
| 20260505211014 | 18 | 5 | 4.8 | 9.7 | 0.00 | 0.00 | 0.00 | 39 | 1012.8 |
| 20260505210514 | 18 | 52 | 3.2 | 9.7 | 0.00 | 0.00 | 0.00 | 39 | 1012.7 |
| 20260505210036 | 18 | 47 | 3.2 | 12.9 | 0.00 | 0.00 | 0.00 | 37 | 1012.7 |
| 20260505205514 | 18 | 68 | 4.8 | 12.9 | 0.00 | 0.00 | 0.00 | 38 | 1012.5 |
| 20260505205014 | 18 | 355 | 3.2 | 14.5 | 0.00 | 0.00 | 0.00 | 38 | 1012.7 |
| 20260505204533 | 19 | 311 | 4.8 | 14.5 | 0.00 | 0.00 | 0.00 | 36 | 1012.7 |
| 20260505204014 | 20 | 355 | 4.8 | 12.9 | 0.00 | 0.00 | 0.00 | 36 | 1012.8 |
| 20260505203518 | 20 | 84 | 4.8 | 11.3 | 0.00 | 0.00 | 0.00 | 36 | 1012.7 |
| 20260505203029 | 20 | 57 | 6.4 | 19.3 | 0.00 | 0.00 | 0.00 | 37 | 1012.8 |
| 20260505202514 | 20 | 26 | 8.0 | 19.3 | 0.00 | 0.00 | 0.00 | 34 | 1012.8 |
| 20260505202015 | 20 | 22 | 4.8 | 9.7 | 0.00 | 0.00 | 0.00 | 37 | 1012.8 |
| 20260505201531 | 20 | 46 | 3.2 | 9.7 | 0.00 | 0.00 | 0.00 | 38 | 1012.8 |
| 20260505201014 | 19 | 29 | 4.8 | 8.0 | 0.00 | 0.00 | 0.00 | 38 | 1012.7 |
| 20260505200512 | 18 | 64 | 4.8 | 8.0 | 0.00 | 0.00 | 0.00 | 40 | 1012.7 |
| 20260505200055 | 17 | 28 | 3.2 | 8.0 | 0.00 | 0.00 | 0.00 | 40 | 1012.9 |
| 20260505195515 | 17 | 9 | 3.2 | 8.0 | 0.00 | 0.00 | 0.00 | 40 | 1013.0 |
| 20260505195014 | 17 | 355 | 4.8 | 9.7 | 0.00 | 0.00 | 0.00 | 41 | 1012.9 |
| 20260505194538 | 17 | 355 | 3.2 | 9.7 | 0.00 | 0.00 | 0.00 | 41 | 1012.8 |
| 20260505194013 | 17 | 310 | 3.2 | 8.0 | 0.00 | 0.00 | 0.00 | 39 | 1012.8 |
| 20260505193518 | 17 | 304 | 3.2 | 8.0 | 0.00 | 0.00 | 0.00 | 38 | 1012.9 |
| 20260505193038 | 17 | 275 | 3.2 | 8.0 | 0.00 | 0.00 | 0.00 | 38 | 1012.8 |
| 20260505192519 | 17 | 263 | 1.6 | 6.4 | 0.00 | 0.00 | 0.00 | 37 | 1012.9 |
| 20260505192013 | 18 | 333 | 3.2 | 8.0 | 0.00 | 0.00 | 0.00 | 36 | 1012.9 |
| 20260505191543 | 18 | 305 | 4.8 | 8.0 | 0.00 | 0.00 | 0.00 | 36 | 1012.7 |
| 20260505191011 | 17 | 355 | 1.6 | 9.7 | 0.00 | 0.00 | 0.00 | 36 | 1012.8 |
| 20260505190514 | 18 | 328 | 3.2 | 9.7 | 0.00 | 0.00 | 0.00 | 35 | 1012.8 |
| 20260505190040 | 17 | 69 | 1.6 | 9.7 | 0.00 | 0.00 | 0.00 | 35 | 1012.7 |
| 20260505185516 | 18 | 355 | 3.2 | 9.7 | 0.00 | 0.00 | 0.00 | 36 | 1012.7 |
| 20260505185017 | 18 | 22 | 4.8 | 9.7 | 0.00 | 0.00 | 0.00 | 35 | 1012.7 |
| 20260505184537 | 18 | 350 | 4.8 | 9.7 | 0.00 | 0.00 | 0.00 | 35 | 1012.7 |
| 20260505184014 | 18 | 302 | 1.6 | 9.7 | 0.00 | 0.00 | 0.00 | 37 | 1012.7 |
| 20260505183512 | 18 | 12 | 4.8 | 9.7 | 0.00 | 0.00 | 0.00 | 37 | 1012.7 |
| 20260505183052 | 18 | 316 | 4.8 | 8.0 | 0.00 | 0.00 | 0.00 | 38 | 1012.7 |
| 20260505182516 | 17 | 346 | 1.6 | 8.0 | 0.00 | 0.00 | 0.00 | 36 | 1012.8 |
| 20260505182015 | 17 | 19 | 3.2 | 8.0 | 0.00 | 0.00 | 0.00 | 38 | 1012.8 |
| 20260505181539 | 17 | 284 | 3.2 | 9.7 | 0.00 | 0.00 | 0.00 | 37 | 1012.7 |
| 20260505181012 | 17 | 329 | 3.2 | 9.7 | 0.00 | 0.00 | 0.00 | 38 | 1012.7 |
| 20260505180515 | 17 | 331 | 3.2 | 8.0 | 0.00 | 0.00 | 0.00 | 36 | 1012.8 |
| 20260505180046 | 17 | 333 | 4.8 | 8.0 | 0.00 | 0.00 | 0.00 | 37 | 1012.9 |
| 20260505175513 | 17 | 306 | 3.2 | 8.0 | 0.00 | 0.00 | 0.00 | 36 | 1012.7 |
| 20260505175013 | 16 | 344 | 3.2 | 9.7 | 0.00 | 0.00 | 0.00 | 36 | 1012.7 |
| 20260505174545 | 17 | 300 | 3.2 | 9.7 | 0.00 | 0.00 | 0.00 | 37 | 1012.6 |
| 20260505174015 | 16 | 339 | 3.2 | 8.0 | 0.00 | 0.00 | 0.00 | 37 | 1012.5 |
| 20260505173517 | 16 | 323 | 1.6 | 9.7 | 0.00 | 0.00 | 0.00 | 37 | 1012.5 |
| 20260505173037 | 16 | 298 | 4.8 | 9.7 | 0.00 | 0.00 | 0.00 | 36 | 1012.6 |
| 20260505172513 | 16 | 309 | 1.6 | 8.0 | 0.00 | 0.00 | 0.00 | 37 | 1012.5 |
| 20260505172015 | 16 | 321 | 3.2 | 6.4 | 0.00 | 0.00 | 0.00 | 37 | 1012.4 |
| 20260505171548 | 16 | 288 | 3.2 | 6.4 | 0.00 | 0.00 | 0.00 | 36 | 1012.3 |
| 20260505171012 | 16 | 324 | 3.2 | 8.0 | 0.00 | 0.00 | 0.00 | 37 | 1012.3 |
| 20260505170514 | 16 | 305 | 3.2 | 8.0 | 0.00 | 0.00 | 0.00 | 40 | 1012.4 |
| 20260505170052 | 16 | 247 | 3.2 | 8.0 | 0.00 | 0.00 | 0.00 | 37 | 1012.5 |
| 20260505165514 | 16 | 301 | 4.8 | 8.0 | 0.00 | 0.00 | 0.00 | 36 | 1012.5 |
| 20260505165014 | 16 | 254 | 3.2 | 8.0 | 0.00 | 0.00 | 0.00 | 36 | 1012.4 |
| 20260505164538 | 16 | 295 | 4.8 | 8.0 | 0.00 | 0.00 | 0.00 | 38 | 1012.2 |
| 20260505164016 | 16 | 271 | 3.2 | 6.4 | 0.00 | 0.00 | 0.00 | 37 | 1012.1 |
| 20260505163515 | 16 | 286 | 1.6 | 8.0 | 0.00 | 0.00 | 0.00 | 38 | 1012.1 |
| 20260505163038 | 16 | 307 | 3.2 | 8.0 | 0.00 | 0.00 | 0.00 | 36 | 1012.1 |
| 20260505162511 | 16 | 287 | 3.2 | 6.4 | 0.00 | 0.00 | 0.00 | 38 | 1012.0 |
| 20260505162013 | 16 | 280 | 1.6 | 6.4 | 0.00 | 0.00 | 0.00 | 38 | 1011.9 |
| 20260505161537 | 16 | 300 | 3.2 | 6.4 | 0.00 | 0.00 | 0.00 | 37 | 1012.2 |
| 20260505161015 | 15 | 286 | 3.2 | 6.4 | 0.00 | 0.00 | 0.00 | 40 | 1012.2 |
| 20260505160516 | 15 | 254 | 3.2 | 6.4 | 0.00 | 0.00 | 0.00 | 41 | 1012.0 |
| 20260505153040 | 15 | 290 | 1.6 | 6.4 | 0.00 | 0.00 | 0.00 | 40 | 1011.9 |
| 20260505152511 | 15 | 269 | 3.2 | 6.4 | 0.00 | 0.00 | 0.00 | 41 | 1011.7 |
| 20260505152016 | 15 | 296 | 3.2 | 6.4 | 0.00 | 0.00 | 0.00 | 40 | 1011.7 |
| 20260505151538 | 14 | 297 | 1.6 | 6.4 | 0.00 | 0.00 | 0.00 | 41 | 1011.6 |
| 20260505151015 | 14 | 321 | 1.6 | 6.4 | 0.00 | 0.00 | 0.00 | 44 | 1011.6 |
| 20260505150520 | 14 | 329 | 1.6 | 4.8 | 0.00 | 0.00 | 0.00 | 43 | 1011.6 |
| 20260505140516 | 13 | 232 | 1.6 | 4.8 | 0.00 | 0.00 | 0.00 | 44 | 1011.1 |
| 20260505125018 | 12 | 222 | 3.2 | 8.0 | 0.00 | 0.00 | 0.00 | 46 | 1010.5 |
| 20260505124543 | 12 | 227 | 3.2 | 8.0 | 0.00 | 0.00 | 0.00 | 46 | 1010.4 |
| 20260505124014 | 12 | 252 | 4.8 | 8.0 | 0.00 | 0.00 | 0.00 | 46 | 1010.4 |
| 20260505123524 | 12 | 217 | 4.8 | 8.0 | 0.00 | 0.00 | 0.00 | 46 | 1010.3 |
| 20260505123052 | 12 | 238 | 3.2 | 8.0 | 0.00 | 0.00 | 0.00 | 46 | 1010.4 |
| 20260505122519 | 12 | 223 | 4.8 | 9.7 | 0.00 | 0.00 | 0.00 | 46 | 1010.2 |
| 20260505122234 | 12 | 212 | 4.8 | 9.7 | 0.00 | 0.00 | 0.00 | 46 | 1010.2 |
| 20260505121539 | 12 | 197 | 4.8 | 11.3 | 0.00 | 0.00 | 0.00 | 46 | 1010.2 |
| 20260505121012 | 12 | 231 | 4.8 | 11.3 | 0.00 | 0.00 | 0.00 | 46 | 1010.2 |
| 20260505120512 | 12 | 225 | 4.8 | 9.7 | 0.00 | 0.00 | 0.00 | 46 | 1010.2 |
| 20260505120043 | 12 | 221 | 4.8 | 11.3 | 0.00 | 0.00 | 0.00 | 46 | 1010.1 |
| 20260505115508 | 12 | 250 | 6.4 | 11.3 | 0.00 | 0.00 | 0.00 | 46 | 1010.1 |
| 20260505115009 | 12 | 224 | 4.8 | 9.7 | 0.00 | 0.00 | 0.00 | 46 | 1010.1 |
| 20260505114544 | 12 | 246 | 4.8 | 12.9 | 0.00 | 0.00 | 0.00 | 46 | 1010.1 |
| 20260505114011 | 12 | 235 | 6.4 | 12.9 | 0.00 | 0.00 | 0.00 | 46 | 1010.1 |
| 20260505113509 | 12 | 229 | 4.8 | 14.5 | 0.00 | 0.00 | 0.00 | 46 | 1010.2 |
| 20260505113035 | 12 | 250 | 6.4 | 14.5 | 0.00 | 0.00 | 0.00 | 46 | 1010.1 |
| 20260505112510 | 12 | 225 | 6.4 | 9.7 | 0.00 | 0.00 | 0.00 | 46 | 1010.1 |
| 20260505112011 | 12 | 265 | 4.8 | 11.3 | 0.00 | 0.00 | 0.00 | 46 | 1010.1 |
| 20260505111532 | 12 | 246 | 4.8 | 12.9 | 0.00 | 0.00 | 0.00 | 46 | 1010.1 |
| 20260505111010 | 12 | 232 | 6.4 | 12.9 | 0.00 | 0.00 | 0.00 | 46 | 1010.1 |
| 20260505110510 | 12 | 230 | 6.4 | 11.3 | 0.00 | 0.00 | 0.00 | 46 | 1010.0 |
| 20260505102010 | 12 | 252 | 6.4 | 12.9 | 0.00 | 0.00 | 0.00 | 46 | 1010.0 |
| 20260505101548 | 12 | 252 | 6.4 | 11.3 | 0.00 | 0.00 | 0.00 | 46 | 1009.9 |
| 20260505101017 | 12 | 241 | 6.4 | 12.9 | 0.00 | 0.00 | 0.00 | 46 | 1009.9 |
| 20260505100513 | 12 | 238 | 6.4 | 12.9 | 0.00 | 0.00 | 0.00 | 47 | 1010.0 |
| 20260505100039 | 12 | 247 | 8.0 | 12.9 | 0.00 | 0.00 | 0.00 | 46 | 1009.9 |
| 20260505095514 | 12 | 232 | 8.0 | 14.5 | 0.00 | 0.00 | 0.00 | 46 | 1009.8 |
| 20260505095012 | 12 | 246 | 6.4 | 14.5 | 0.00 | 0.00 | 0.00 | 46 | 1009.9 |
| 20260505094540 | 12 | 242 | 6.4 | 11.3 | 0.00 | 0.00 | 0.00 | 46 | 1009.8 |
| 20260505094011 | 12 | 244 | 6.4 | 12.9 | 0.00 | 0.00 | 0.00 | 46 | 1009.8 |
| 20260505093512 | 12 | 248 | 8.0 | 11.3 | 0.00 | 0.00 | 0.00 | 47 | 1009.8 |
| 20260505093037 | 12 | 251 | 6.4 | 9.7 | 0.00 | 0.00 | 0.00 | 47 | 1009.8 |
| 20260505092513 | 12 | 242 | 6.4 | 12.9 | 0.00 | 0.00 | 0.00 | 47 | 1009.8 |
| 20260505092011 | 12 | 244 | 6.4 | 12.9 | 0.00 | 0.00 | 0.00 | 47 | 1009.9 |
| 20260505091547 | 12 | 248 | 6.4 | 11.3 | 0.00 | 0.00 | 0.00 | 47 | 1009.8 |
| 20260505091011 | 12 | 242 | 6.4 | 11.3 | 0.00 | 0.00 | 0.00 | 47 | 1009.9 |
| 20260505090512 | 12 | 248 | 8.0 | 12.9 | 0.00 | 0.00 | 0.00 | 47 | 1009.8 |
| 20260505090041 | 12 | 257 | 8.0 | 12.9 | 0.00 | 0.00 | 0.00 | 47 | 1009.8 |
| 20260505085512 | 12 | 265 | 8.0 | 12.9 | 0.00 | 0.00 | 0.00 | 47 | 1009.8 |
| 20260505085010 | 12 | 257 | 8.0 | 11.3 | 0.00 | 0.00 | 0.00 | 47 | 1009.8 |
| 20260505084541 | 12 | 234 | 8.0 | 11.3 | 0.00 | 0.00 | 0.00 | 47 | 1009.8 |
| 20260505084013 | 13 | 271 | 6.4 | 11.3 | 0.00 | 0.00 | 0.00 | 46 | 1009.8 |
| 20260505083509 | 12 | 221 | 6.4 | 11.3 | 0.00 | 0.00 | 0.00 | 46 | 1009.7 |
| 20260505083037 | 12 | 232 | 6.4 | 11.3 | 0.00 | 0.00 | 0.00 | 47 | 1009.7 |
| 20260505082516 | 12 | 250 | 4.8 | 11.3 | 0.00 | 0.00 | 0.00 | 47 | 1009.6 |
| 20260505082014 | 12 | 226 | 6.4 | 14.5 | 0.00 | 0.00 | 0.00 | 47 | 1009.7 |
| 20260505081537 | 13 | 240 | 4.8 | 14.5 | 0.00 | 0.00 | 0.00 | 46 | 1009.8 |
| 20260505081019 | 13 | 258 | 6.4 | 14.5 | 0.00 | 0.00 | 0.00 | 46 | 1009.8 |
| 20260505080510 | 12 | 236 | 8.0 | 14.5 | 0.00 | 0.00 | 0.00 | 47 | 1009.8 |
| 20260505080039 | 12 | 250 | 6.4 | 14.5 | 0.00 | 0.00 | 0.00 | 48 | 1009.8 |
| 20260505075514 | 12 | 252 | 6.4 | 14.5 | 0.00 | 0.00 | 0.00 | 47 | 1009.7 |
| 20260505075016 | 12 | 229 | 8.0 | 14.5 | 0.00 | 0.00 | 0.00 | 48 | 1009.8 |
| 20260505074539 | 12 | 259 | 6.4 | 14.5 | 0.00 | 0.00 | 0.00 | 48 | 1009.8 |
| 20260505074011 | 12 | 233 | 6.4 | 14.5 | 0.00 | 0.00 | 0.00 | 48 | 1009.7 |
| 20260505073515 | 12 | 225 | 8.0 | 16.1 | 0.00 | 0.00 | 0.00 | 49 | 1009.6 |
| 20260505073050 | 12 | 238 | 8.0 | 16.1 | 0.00 | 0.00 | 0.00 | 49 | 1009.7 |
| 20260505072511 | 12 | 248 | 8.0 | 14.5 | 0.00 | 0.00 | 0.00 | 48 | 1009.6 |
| 20260505072013 | 12 | 258 | 9.7 | 16.1 | 0.00 | 0.00 | 0.00 | 49 | 1009.6 |
| 20260505071549 | 12 | 250 | 9.7 | 16.1 | 0.00 | 0.00 | 0.00 | 49 | 1009.7 |
| 20260505071010 | 12 | 254 | 9.7 | 16.1 | 0.00 | 0.00 | 0.00 | 48 | 1009.6 |
| 20260505070516 | 12 | 234 | 8.0 | 17.7 | 0.00 | 0.00 | 0.00 | 48 | 1009.6 |
| 20260505070033 | 12 | 240 | 9.7 | 17.7 | 0.00 | 0.00 | 0.00 | 48 | 1009.7 |
| 20260505065512 | 12 | 259 | 11.3 | 16.1 | 0.00 | 0.00 | 0.00 | 49 | 1009.6 |
| 20260505065009 | 12 | 252 | 9.7 | 14.5 | 0.00 | 0.00 | 0.00 | 49 | 1009.5 |
| 20260505064541 | 12 | 250 | 8.0 | 16.1 | 0.00 | 0.00 | 0.00 | 49 | 1009.6 |
| 20260505064010 | 12 | 259 | 8.0 | 16.1 | 0.00 | 0.00 | 0.00 | 48 | 1009.6 |
| 20260505063510 | 12 | 281 | 9.7 | 17.7 | 0.00 | 0.00 | 0.00 | 47 | 1009.7 |
| 20260505063035 | 12 | 250 | 9.7 | 17.7 | 0.00 | 0.00 | 0.00 | 47 | 1009.6 |
| 20260505062511 | 12 | 256 | 9.7 | 17.7 | 0.00 | 0.00 | 0.00 | 47 | 1009.6 |
| 20260505062012 | 12 | 227 | 8.0 | 19.3 | 0.00 | 0.00 | 0.00 | 48 | 1009.6 |
| 20260505061537 | 12 | 210 | 11.3 | 19.3 | 0.00 | 0.00 | 0.00 | 47 | 1009.6 |
| 20260505061013 | 12 | 255 | 9.7 | 24.1 | 0.00 | 0.00 | 0.00 | 46 | 1009.6 |
| 20260505060513 | 12 | 266 | 11.3 | 24.1 | 0.00 | 0.00 | 0.00 | 47 | 1009.6 |
| 20260505060047 | 12 | 268 | 11.3 | 17.7 | 0.00 | 0.00 | 0.00 | 47 | 1009.7 |
| 20260505055518 | 12 | 247 | 9.7 | 17.7 | 0.00 | 0.00 | 0.00 | 47 | 1009.6 |
| 20260505055012 | 13 | 228 | 12.9 | 22.5 | 0.00 | 0.00 | 0.00 | 47 | 1009.7 |
| 20260505054538 | 13 | 259 | 12.9 | 22.5 | 0.00 | 0.00 | 0.00 | 45 | 1009.5 |
| 20260505054013 | 13 | 246 | 11.3 | 20.9 | 0.00 | 0.00 | 0.00 | 46 | 1009.4 |
| 20260505053510 | 13 | 205 | 12.9 | 22.5 | 0.00 | 0.00 | 0.00 | 45 | 1009.5 |
| 20260505053041 | 13 | 268 | 12.9 | 22.5 | 0.00 | 0.00 | 0.00 | 44 | 1009.4 |
| 20260505052511 | 13 | 271 | 12.9 | 22.5 | 0.00 | 0.00 | 0.00 | 44 | 1009.4 |
| 20260505052011 | 13 | 249 | 12.9 | 22.5 | 0.00 | 0.00 | 0.00 | 44 | 1009.3 |
| 20260505051555 | 13 | 202 | 8.0 | 22.5 | 0.00 | 0.00 | 0.00 | 44 | 1009.5 |
| 20260505051013 | 13 | 257 | 9.7 | 24.1 | 0.00 | 0.00 | 0.00 | 43 | 1009.3 |
| 20260505050512 | 13 | 257 | 11.3 | 24.1 | 0.00 | 0.00 | 0.00 | 43 | 1009.3 |
| 20260505041543 | 13 | 263 | 14.5 | 29.0 | 0.00 | 0.00 | 0.00 | 40 | 1009.1 |
| 20260505041015 | 13 | 246 | 11.3 | 22.5 | 0.00 | 0.00 | 0.00 | 42 | 1009.1 |
| 20260505040513 | 13 | 288 | 11.3 | 22.5 | 0.00 | 0.00 | 0.00 | 43 | 1009.0 |
| 20260505040042 | 14 | 256 | 11.3 | 20.9 | 0.00 | 0.00 | 0.00 | 40 | 1009.0 |
| 20260505035510 | 14 | 272 | 9.7 | 27.4 | 0.00 | 0.00 | 0.00 | 42 | 1008.9 |
| 20260505035011 | 14 | 252 | 14.5 | 27.4 | 0.00 | 0.00 | 0.00 | 40 | 1008.7 |
| 20260505034546 | 14 | 285 | 14.5 | 24.1 | 0.00 | 0.00 | 0.00 | 38 | 1008.7 |
| 20260505034011 | 14 | 256 | 16.1 | 24.1 | 0.00 | 0.00 | 0.00 | 41 | 1008.6 |
| 20260505033512 | 14 | 304 | 11.3 | 19.3 | 0.00 | 0.00 | 0.00 | 42 | 1008.8 |
| 20260505033038 | 14 | 263 | 9.7 | 22.5 | 0.00 | 0.00 | 0.00 | 39 | 1008.8 |
| 20260505032513 | 14 | 275 | 14.5 | 22.5 | 0.00 | 0.00 | 0.00 | 39 | 1008.6 |
| 20260505032010 | 14 | 264 | 12.9 | 22.5 | 0.00 | 0.00 | 0.00 | 43 | 1008.6 |
| 20260505031551 | 15 | 267 | 9.7 | 19.3 | 0.00 | 0.00 | 0.00 | 38 | 1008.7 |
| 20260505031013 | 15 | 278 | 12.9 | 20.9 | 0.00 | 0.00 | 0.00 | 35 | 1008.5 |
| 20260505030511 | 15 | 238 | 11.3 | 17.7 | 0.00 | 0.00 | 0.00 | 36 | 1008.6 |
| 20260505030045 | 15 | 248 | 11.3 | 19.3 | 0.00 | 0.00 | 0.00 | 33 | 1008.8 |
| 20260505025516 | 15 | 280 | 11.3 | 20.9 | 0.00 | 0.00 | 0.00 | 33 | 1008.6 |
| 20260505025012 | 15 | 265 | 12.9 | 20.9 | 0.00 | 0.00 | 0.00 | 34 | 1008.6 |
| 20260505024540 | 16 | 252 | 11.3 | 20.9 | 0.00 | 0.00 | 0.00 | 33 | 1008.5 |
| 20260505024010 | 16 | 255 | 16.1 | 20.9 | 0.00 | 0.00 | 0.00 | 33 | 1008.5 |
| 20260505023511 | 16 | 256 | 14.5 | 25.7 | 0.00 | 0.00 | 0.00 | 32 | 1008.4 |
| 20260505023053 | 16 | 269 | 14.5 | 25.7 | 0.00 | 0.00 | 0.00 | 33 | 1008.4 |
| 20260505022515 | 16 | 243 | 14.5 | 24.1 | 0.00 | 0.00 | 0.00 | 34 | 1008.6 |
| 20260505022013 | 16 | 286 | 14.5 | 27.4 | 0.00 | 0.00 | 0.00 | 32 | 1008.4 |
| 20260505021544 | 16 | 259 | 14.5 | 25.7 | 0.00 | 0.00 | 0.00 | 31 | 1008.6 |
| 20260505021011 | 16 | 267 | 14.5 | 25.7 | 0.00 | 0.00 | 0.00 | 31 | 1008.6 |
| 20260505020513 | 16 | 252 | 17.7 | 25.7 | 0.00 | 0.00 | 0.00 | 30 | 1008.4 |
| 20260505020045 | 17 | 259 | 16.1 | 25.7 | 0.00 | 0.00 | 0.00 | 30 | 1008.4 |
| 20260505015511 | 17 | 254 | 16.1 | 25.7 | 0.00 | 0.00 | 0.00 | 31 | 1008.6 |
| 20260505015012 | 17 | 264 | 14.5 | 25.7 | 0.00 | 0.00 | 0.00 | 30 | 1008.4 |
| 20260505014545 | 17 | 248 | 14.5 | 27.4 | 0.00 | 0.00 | 0.00 | 30 | 1008.5 |